Terminal Aerodrome Forecast
Issued by NWS

Home | Current Version | Previous Version | Text Only | Print | Product List | Glossary On
Versions: 1 2 3 4 5 6 7 8 9 10 11 12 13 14 15 16 17 18 19 20 21 22 23 24 25 26 27
611
FTUS41 KOKX 301739
TAFSWF
TAF
KSWF 301739Z 3018/3124 08005KT P6SM BKN100
     FM302000 10006KT P6SM VCSH SCT025 BKN050
      TEMPO 3020/3024 4SM TS OVC025CB
     FM310000 VRB03KT 4SM SHRA BKN025 OVC050
      TEMPO 3100/3102 4SM TS OVC025CB
     FM310500 VRB03KT 5SM BR OVC015
     FM310700 VRB03KT 3SM SHRA BR OVC008
     FM312000 12006KT 5SM SHRA SCT008 OVC025
      AMD NOT SKED=

USA.gov is the U.S. government's official web portal to all federal, state and local government web resources and services.